Year,Month,Day,Hour,Minute,Value (Times are PST for windspeed in km/hr)
2008,02,06,00,00,7.00
2008,02,06,00,01,6.30
2008,02,06,00,02,7.20
2008,02,06,00,03,6.60
2008,02,06,00,04,7.30
2008,02,06,00,05,12.40
2008,02,06,00,06,11.30
2008,02,06,00,07,14.00
2008,02,06,00,08,8.90
2008,02,06,00,09,12.80
2008,02,06,00,10,17.40
2008,02,06,00,11,9.50
2008,02,06,00,12,7.50
2008,02,06,00,13,14.90
2008,02,06,00,14,11.60
2008,02,06,00,15,14.10
2008,02,06,00,16,20.90
2008,02,06,00,17,18.00
2008,02,06,00,18,20.30
2008,02,06,00,19,23.10
2008,02,06,00,20,16.90
2008,02,06,00,21,17.20
2008,02,06,00,22,15.90
2008,02,06,00,23,22.30
2008,02,06,00,24,18.10
2008,02,06,00,25,16.50
2008,02,06,00,26,17.00
2008,02,06,00,27,21.50
2008,02,06,00,28,21.00
2008,02,06,00,29,16.70
2008,02,06,00,30,10.70
2008,02,06,00,31,18.50
2008,02,06,00,32,8.40
2008,02,06,00,33,8.30
2008,02,06,00,34,11.10
2008,02,06,00,35,9.90
2008,02,06,00,36,15.90
2008,02,06,00,37,18.80
2008,02,06,00,38,13.20
2008,02,06,00,39,12.80
2008,02,06,00,40,15.20
2008,02,06,00,41,18.00
2008,02,06,00,42,14.30
2008,02,06,00,43,12.00
2008,02,06,00,44,7.40
2008,02,06,00,45,16.20
2008,02,06,00,46,12.30
2008,02,06,00,47,10.50
2008,02,06,00,48,13.70
2008,02,06,00,49,13.30
2008,02,06,00,50,15.90
2008,02,06,00,51,7.80
2008,02,06,00,52,7.10
2008,02,06,00,53,10.50
2008,02,06,00,54,13.60
2008,02,06,00,55,12.90
2008,02,06,00,56,10.30
2008,02,06,00,57,10.10
2008,02,06,00,58,6.40
2008,02,06,00,59,7.50
2008,02,06,01,00,8.10
2008,02,06,01,01,8.90
2008,02,06,01,02,10.90
2008,02,06,01,03,8.10
2008,02,06,01,04,11.20
2008,02,06,01,05,9.70
2008,02,06,01,06,10.90
2008,02,06,01,07,17.00
2008,02,06,01,08,15.40
2008,02,06,01,09,15.60
2008,02,06,01,10,14.60
2008,02,06,01,11,18.30
2008,02,06,01,12,5.10
2008,02,06,01,13,6.00
2008,02,06,01,14,7.60
2008,02,06,01,15,13.60
2008,02,06,01,16,14.40
2008,02,06,01,17,8.10
2008,02,06,01,18,6.30
2008,02,06,01,19,8.30
2008,02,06,01,20,7.90
2008,02,06,01,21,8.50
2008,02,06,01,22,5.30
2008,02,06,01,23,9.80
2008,02,06,01,24,11.40
2008,02,06,01,25,5.50
2008,02,06,01,26,14.70
2008,02,06,01,27,16.80
2008,02,06,01,28,10.80
2008,02,06,01,29,7.90
2008,02,06,01,30,10.30
2008,02,06,01,31,16.20
2008,02,06,01,32,10.80
2008,02,06,01,33,13.50
2008,02,06,01,34,13.50
2008,02,06,01,35,17.90
2008,02,06,01,36,16.20
2008,02,06,01,37,14.70
2008,02,06,01,38,17.20
2008,02,06,01,39,13.20
2008,02,06,01,40,12.50
2008,02,06,01,41,12.70
2008,02,06,01,42,12.50
2008,02,06,01,43,13.80
2008,02,06,01,44,13.10
2008,02,06,01,45,6.70
2008,02,06,01,46,13.80
2008,02,06,01,47,5.70
2008,02,06,01,48,15.10
2008,02,06,01,49,9.80
2008,02,06,01,50,10.30
2008,02,06,01,51,10.10
2008,02,06,01,52,18.10
2008,02,06,01,53,16.00
2008,02,06,01,54,13.80
2008,02,06,01,55,20.70
2008,02,06,01,56,13.80
2008,02,06,01,57,16.70
2008,02,06,01,58,15.10
2008,02,06,01,59,13.00
2008,02,06,02,00,15.30
2008,02,06,02,01,18.90
2008,02,06,02,02,18.30
2008,02,06,02,03,15.60
2008,02,06,02,04,12.70
2008,02,06,02,05,11.30
2008,02,06,02,06,13.40
2008,02,06,02,07,9.80
2008,02,06,02,08,6.40
2008,02,06,02,09,18.20
2008,02,06,02,10,19.10
2008,02,06,02,11,12.60
2008,02,06,02,12,10.10
2008,02,06,02,13,11.30
2008,02,06,02,14,12.30
2008,02,06,02,15,8.50
2008,02,06,02,16,13.70
2008,02,06,02,17,13.20
2008,02,06,02,18,12.60
2008,02,06,02,19,14.40
2008,02,06,02,20,15.70
2008,02,06,02,21,9.90
2008,02,06,02,22,15.60
2008,02,06,02,23,11.50
2008,02,06,02,24,7.90
2008,02,06,02,25,9.90
2008,02,06,02,26,14.00
2008,02,06,02,27,11.60
2008,02,06,02,28,12.10
2008,02,06,02,29,11.60
2008,02,06,02,30,11.80
2008,02,06,02,31,13.90
2008,02,06,02,32,18.60
2008,02,06,02,33,13.40
2008,02,06,02,34,12.20
2008,02,06,02,35,12.90
2008,02,06,02,36,10.30
2008,02,06,02,37,13.80
2008,02,06,02,38,11.70
2008,02,06,02,39,13.20
2008,02,06,02,40,5.80
2008,02,06,02,41,3.50
2008,02,06,02,42,14.40
2008,02,06,02,43,8.10
2008,02,06,02,44,10.80
2008,02,06,02,45,8.90
2008,02,06,02,46,1.60
2008,02,06,02,47,6.80
2008,02,06,02,48,6.40
2008,02,06,02,49,5.10
2008,02,06,02,50,6.60
2008,02,06,02,51,9.30
2008,02,06,02,52,15.00
2008,02,06,02,53,11.40
2008,02,06,02,54,12.10
2008,02,06,02,55,11.10
2008,02,06,02,56,10.30
2008,02,06,02,57,9.70
2008,02,06,02,58,17.80
2008,02,06,02,59,20.90
2008,02,06,03,00,19.70
2008,02,06,03,01,20.40
2008,02,06,03,02,7.10
2008,02,06,03,03,10.90
2008,02,06,03,04,14.60
2008,02,06,03,05,12.40
2008,02,06,03,06,19.90
2008,02,06,03,07,15.20
2008,02,06,03,08,19.60
2008,02,06,03,09,15.90
2008,02,06,03,10,8.40
2008,02,06,03,11,24.80
2008,02,06,03,12,14.10
2008,02,06,03,13,14.40
2008,02,06,03,14,5.60
2008,02,06,03,15,11.80
2008,02,06,03,16,13.30
2008,02,06,03,17,15.70
2008,02,06,03,18,13.20
2008,02,06,03,19,17.70
2008,02,06,03,20,16.10
2008,02,06,03,21,9.60
2008,02,06,03,22,14.20
2008,02,06,03,23,14.20
2008,02,06,03,24,9.50
2008,02,06,03,25,13.90
2008,02,06,03,26,13.00
2008,02,06,03,27,11.30
2008,02,06,03,28,9.50
2008,02,06,03,29,13.70
2008,02,06,03,30,5.30
2008,02,06,03,31,11.60
2008,02,06,03,32,15.40
2008,02,06,03,33,10.00
2008,02,06,03,34,8.30
2008,02,06,03,35,12.40
2008,02,06,03,36,11.20
2008,02,06,03,37,6.30
2008,02,06,03,38,5.80
2008,02,06,03,39,6.30
2008,02,06,03,40,7.40
2008,02,06,03,41,3.10
2008,02,06,03,42,2.10
2008,02,06,03,43,4.20
2008,02,06,03,44,4.60
2008,02,06,03,45,4.30
2008,02,06,03,46,4.80
2008,02,06,03,47,4.20
2008,02,06,03,48,2.90
2008,02,06,03,49,3.40
2008,02,06,03,50,2.80
2008,02,06,03,51,3.30
2008,02,06,03,52,3.30
2008,02,06,03,53,5.50
2008,02,06,03,54,5.70
2008,02,06,03,55,8.80
2008,02,06,03,56,10.70
2008,02,06,03,57,11.00
2008,02,06,03,58,8.70
2008,02,06,03,59,4.50
2008,02,06,04,00,11.70
2008,02,06,04,01,11.20
2008,02,06,04,02,10.20
2008,02,06,04,03,10.00
2008,02,06,04,04,13.60
2008,02,06,04,05,4.60
2008,02,06,04,06,6.30
2008,02,06,04,07,6.60
2008,02,06,04,08,6.20
2008,02,06,04,09,6.40
2008,02,06,04,10,9.30
2008,02,06,04,11,4.50
2008,02,06,04,12,8.00
2008,02,06,04,13,6.70
2008,02,06,04,14,8.00
2008,02,06,04,15,13.10
2008,02,06,04,16,8.10
2008,02,06,04,17,9.00
2008,02,06,04,18,7.40
2008,02,06,04,19,10.80
2008,02,06,04,20,6.60
2008,02,06,04,21,5.20
2008,02,06,04,22,8.50
2008,02,06,04,23,9.20
2008,02,06,04,24,7.10
2008,02,06,04,25,7.50
2008,02,06,04,26,6.30
2008,02,06,04,27,15.40
2008,02,06,04,28,9.40
2008,02,06,04,29,4.20
2008,02,06,04,30,11.90
2008,02,06,04,31,10.10
2008,02,06,04,32,8.00
2008,02,06,04,33,6.10
2008,02,06,04,34,10.40
2008,02,06,04,35,11.10
2008,02,06,04,36,7.40
2008,02,06,04,37,7.10
2008,02,06,04,38,8.20
2008,02,06,04,39,8.00
2008,02,06,04,40,10.10
2008,02,06,04,41,14.30
2008,02,06,04,42,11.80
2008,02,06,04,43,5.00
2008,02,06,04,44,10.40
2008,02,06,04,45,10.20
2008,02,06,04,46,11.10
2008,02,06,04,47,14.50
2008,02,06,04,48,17.30
2008,02,06,04,49,10.40
2008,02,06,04,50,13.70
2008,02,06,04,51,10.90
2008,02,06,04,52,6.90
2008,02,06,04,53,6.60
2008,02,06,04,54,9.40
2008,02,06,04,55,10.50
2008,02,06,04,56,6.00
2008,02,06,04,57,9.10
2008,02,06,04,58,11.50
2008,02,06,04,59,1.90
2008,02,06,05,00,5.40
2008,02,06,05,01,2.30
2008,02,06,05,02,4.00
2008,02,06,05,03,5.80
2008,02,06,05,04,5.80
2008,02,06,05,05,3.10
2008,02,06,05,06,6.70
2008,02,06,05,07,5.60
2008,02,06,05,08,4.50
2008,02,06,05,09,7.30
2008,02,06,05,10,15.20
2008,02,06,05,11,5.70
2008,02,06,05,12,11.80
2008,02,06,05,13,8.70
2008,02,06,05,14,4.40
2008,02,06,05,15,6.20
2008,02,06,05,16,7.80
2008,02,06,05,17,13.80
2008,02,06,05,18,9.50
2008,02,06,05,19,6.80
2008,02,06,05,20,4.30
2008,02,06,05,21,5.00
2008,02,06,05,22,6.90
2008,02,06,05,23,5.20
2008,02,06,05,24,3.00
2008,02,06,05,25,3.50
2008,02,06,05,26,4.50
2008,02,06,05,27,5.30
2008,02,06,05,28,5.10
2008,02,06,05,29,5.00
2008,02,06,05,30,4.40
2008,02,06,05,31,5.00
2008,02,06,05,32,4.10
2008,02,06,05,33,2.60
2008,02,06,05,34,3.40
2008,02,06,05,35,5.00
2008,02,06,05,36,4.70
2008,02,06,05,37,8.10
2008,02,06,05,38,4.40
2008,02,06,05,39,2.40
2008,02,06,05,40,2.60
2008,02,06,05,41,3.40
2008,02,06,05,42,2.40
2008,02,06,05,43,2.80
2008,02,06,05,44,4.10
2008,02,06,05,45,4.20
2008,02,06,05,46,3.10
2008,02,06,05,47,3.50
2008,02,06,05,48,1.30
2008,02,06,05,49,1.30
2008,02,06,05,50,12.50
2008,02,06,05,51,15.90
2008,02,06,05,52,22.70
2008,02,06,05,53,22.20
2008,02,06,05,54,15.80
2008,02,06,05,55,14.90
2008,02,06,05,56,16.60
2008,02,06,05,57,12.70
2008,02,06,05,58,4.80
2008,02,06,05,59,3.50
2008,02,06,06,00,0.70
2008,02,06,06,01,8.60
2008,02,06,06,02,6.10
2008,02,06,06,03,8.00
2008,02,06,06,04,6.20
2008,02,06,06,05,8.40
2008,02,06,06,06,6.90
2008,02,06,06,07,7.80
2008,02,06,06,08,14.80
2008,02,06,06,09,7.90
2008,02,06,06,10,7.40
2008,02,06,06,11,16.30
2008,02,06,06,12,14.40
2008,02,06,06,13,15.20
2008,02,06,06,14,18.00
2008,02,06,06,15,19.50
2008,02,06,06,16,8.30
2008,02,06,06,17,19.70
2008,02,06,06,18,20.20
2008,02,06,06,19,17.20
2008,02,06,06,20,18.10
2008,02,06,06,21,10.90
2008,02,06,06,22,12.90
2008,02,06,06,23,12.90
2008,02,06,06,24,14.20
2008,02,06,06,25,13.00
2008,02,06,06,26,11.80
2008,02,06,06,27,10.00
2008,02,06,06,28,11.60
2008,02,06,06,29,8.80
2008,02,06,06,30,10.30
2008,02,06,06,31,4.30
2008,02,06,06,32,9.40
2008,02,06,06,33,5.50
2008,02,06,06,34,6.50
2008,02,06,06,35,7.20
2008,02,06,06,36,7.00
2008,02,06,06,37,13.80
2008,02,06,06,38,10.20
2008,02,06,06,39,4.60
2008,02,06,06,40,7.00
2008,02,06,06,41,6.40
2008,02,06,06,42,4.20
2008,02,06,06,43,5.80
2008,02,06,06,44,8.30
2008,02,06,06,45,10.70
2008,02,06,06,46,12.30
2008,02,06,06,47,5.70
2008,02,06,06,48,1.10
2008,02,06,06,49,10.10
2008,02,06,06,50,8.80
2008,02,06,06,51,8.30
2008,02,06,06,52,8.20
2008,02,06,06,53,6.40
2008,02,06,06,54,10.30
2008,02,06,06,55,6.70
2008,02,06,06,56,5.40
2008,02,06,06,57,5.80
2008,02,06,06,58,5.50
2008,02,06,06,59,6.50
2008,02,06,07,00,7.60
2008,02,06,07,01,4.00
2008,02,06,07,02,5.00
2008,02,06,07,03,6.20
2008,02,06,07,04,6.90
2008,02,06,07,05,3.90
2008,02,06,07,06,5.50
2008,02,06,07,07,5.40
2008,02,06,07,08,6.80
2008,02,06,07,09,2.50
2008,02,06,07,10,2.10
2008,02,06,07,11,5.70
2008,02,06,07,12,5.60
2008,02,06,07,13,3.50
2008,02,06,07,14,4.10
2008,02,06,07,15,4.70
2008,02,06,07,16,6.90
2008,02,06,07,17,2.40
2008,02,06,07,18,1.00
2008,02,06,07,19,0.60
2008,02,06,07,20,1.90
2008,02,06,07,21,2.80
2008,02,06,07,22,2.00
2008,02,06,07,23,3.10
2008,02,06,07,24,4.60
2008,02,06,07,25,3.30
2008,02,06,07,26,1.40
2008,02,06,07,27,0.60
2008,02,06,07,28,6.20
2008,02,06,07,29,2.90
2008,02,06,07,30,6.10
2008,02,06,07,31,6.20
2008,02,06,07,32,5.10
2008,02,06,07,33,4.00
2008,02,06,07,34,4.90
2008,02,06,07,35,5.40
2008,02,06,07,36,4.20
2008,02,06,07,37,3.70
2008,02,06,07,38,3.80
2008,02,06,07,39,5.70
2008,02,06,07,40,6.30
2008,02,06,07,41,12.80
2008,02,06,07,42,6.60
2008,02,06,07,43,6.40
2008,02,06,07,44,4.80
2008,02,06,07,45,4.30
2008,02,06,07,46,7.70
2008,02,06,07,47,6.50
2008,02,06,07,48,8.60
2008,02,06,07,49,5.90
2008,02,06,07,50,4.70
2008,02,06,07,51,3.70
2008,02,06,07,52,4.40
2008,02,06,07,53,3.20
2008,02,06,07,54,8.30
2008,02,06,07,55,7.90
2008,02,06,07,56,9.00
2008,02,06,07,57,10.00
2008,02,06,07,58,5.60
2008,02,06,07,59,12.30
2008,02,06,08,00,15.00
2008,02,06,08,01,13.50
2008,02,06,08,02,8.60
2008,02,06,08,03,11.50
2008,02,06,08,04,6.60
2008,02,06,08,05,10.30
2008,02,06,08,06,11.50
2008,02,06,08,07,11.30
2008,02,06,08,08,5.40
2008,02,06,08,09,8.70
2008,02,06,08,10,11.80
2008,02,06,08,11,14.60
2008,02,06,08,12,8.60
2008,02,06,08,13,20.30
2008,02,06,08,14,14.80
2008,02,06,08,15,9.50
2008,02,06,08,16,14.80
2008,02,06,08,17,14.80
2008,02,06,08,18,15.40
2008,02,06,08,19,14.90
2008,02,06,08,20,10.10
2008,02,06,08,21,10.70
2008,02,06,08,22,14.10
2008,02,06,08,23,13.50
2008,02,06,08,24,14.20
2008,02,06,08,25,9.20
2008,02,06,08,26,14.80
2008,02,06,08,27,16.70
2008,02,06,08,28,12.50
2008,02,06,08,29,10.40
2008,02,06,08,30,10.90
2008,02,06,08,31,13.00
2008,02,06,08,32,13.30
2008,02,06,08,33,4.70
2008,02,06,08,34,7.70
2008,02,06,08,35,11.30
2008,02,06,08,36,11.50
2008,02,06,08,37,8.90
2008,02,06,08,38,14.30
2008,02,06,08,39,12.80
2008,02,06,08,40,13.30
2008,02,06,08,41,7.20
2008,02,06,08,42,10.00
2008,02,06,08,43,6.00
2008,02,06,08,44,11.10
2008,02,06,08,45,8.90
2008,02,06,08,46,6.60
2008,02,06,08,47,13.80
2008,02,06,08,48,15.40
2008,02,06,08,49,10.80
2008,02,06,08,50,15.00
2008,02,06,08,51,11.50
2008,02,06,08,52,7.80
2008,02,06,08,53,6.80
2008,02,06,08,54,7.50
2008,02,06,08,55,5.30
2008,02,06,08,56,12.80
2008,02,06,08,57,10.40
2008,02,06,08,58,7.70
2008,02,06,08,59,7.90
2008,02,06,09,00,8.40
2008,02,06,09,01,7.10
2008,02,06,09,02,10.10
2008,02,06,09,03,8.50
2008,02,06,09,04,10.70
2008,02,06,09,05,16.90
2008,02,06,09,06,13.90
2008,02,06,09,07,12.20
2008,02,06,09,08,9.10
2008,02,06,09,09,10.20
2008,02,06,09,10,16.10
2008,02,06,09,11,10.10
2008,02,06,09,12,12.20
2008,02,06,09,13,9.70
2008,02,06,09,14,7.60
2008,02,06,09,15,10.30
2008,02,06,09,16,10.40
2008,02,06,09,17,10.60
2008,02,06,09,18,14.40
2008,02,06,09,19,12.60
2008,02,06,09,20,11.70
2008,02,06,09,21,6.80
2008,02,06,09,22,11.50
2008,02,06,09,23,6.00
2008,02,06,09,24,7.60
2008,02,06,09,25,6.30
2008,02,06,09,26,1.80
2008,02,06,09,27,0.20
2008,02,06,09,28,9.20
2008,02,06,09,29,10.30
2008,02,06,09,30,6.00
2008,02,06,09,31,3.00
2008,02,06,09,32,15.40
2008,02,06,09,33,12.40
2008,02,06,09,34,11.80
2008,02,06,09,35,8.50
2008,02,06,09,36,9.00
2008,02,06,09,37,6.00
2008,02,06,09,38,3.70
2008,02,06,09,39,12.20
2008,02,06,09,40,9.10
2008,02,06,09,41,10.40
2008,02,06,09,42,7.30
2008,02,06,09,43,5.70
2008,02,06,09,44,12.90
2008,02,06,09,45,6.20
2008,02,06,09,46,15.00
2008,02,06,09,47,7.70
2008,02,06,09,48,10.90
2008,02,06,09,49,10.10
2008,02,06,09,50,10.10
2008,02,06,09,51,15.60
2008,02,06,09,52,12.50
2008,02,06,09,53,8.80
2008,02,06,09,54,8.70
2008,02,06,09,55,9.10
2008,02,06,09,56,7.90
2008,02,06,09,57,7.90
2008,02,06,09,58,10.40
2008,02,06,09,59,8.00
2008,02,06,10,00,9.80
2008,02,06,10,01,8.10
2008,02,06,10,02,11.10
2008,02,06,10,03,7.50
2008,02,06,10,04,10.50
2008,02,06,10,05,12.00
2008,02,06,10,06,17.90
2008,02,06,10,07,10.40
2008,02,06,10,08,13.30
2008,02,06,10,09,9.90
2008,02,06,10,10,17.00
2008,02,06,10,11,14.60
2008,02,06,10,12,14.40
2008,02,06,10,13,15.40
2008,02,06,10,14,7.60
2008,02,06,10,15,9.00
2008,02,06,10,16,12.80
2008,02,06,10,17,14.00
2008,02,06,10,18,15.50
2008,02,06,10,19,18.70
2008,02,06,10,20,19.10
2008,02,06,10,21,25.30
2008,02,06,10,22,25.70
2008,02,06,10,23,25.60
2008,02,06,10,24,17.60
2008,02,06,10,25,19.20
2008,02,06,10,26,21.80
2008,02,06,10,27,18.70
2008,02,06,10,28,21.10
2008,02,06,10,29,22.90
2008,02,06,10,30,18.50
2008,02,06,10,31,16.10
2008,02,06,10,32,12.30
2008,02,06,10,33,11.10
2008,02,06,10,34,11.20
2008,02,06,10,35,10.40
2008,02,06,10,36,12.20
2008,02,06,10,37,5.00
2008,02,06,10,38,6.80
2008,02,06,10,39,11.90
2008,02,06,10,40,12.60
2008,02,06,10,41,6.30
2008,02,06,10,42,10.10
2008,02,06,10,43,10.40
2008,02,06,10,44,8.10
2008,02,06,10,45,1.70
2008,02,06,10,46,3.70
2008,02,06,10,47,6.90
2008,02,06,10,48,4.70
2008,02,06,10,49,5.70
2008,02,06,10,50,2.10
2008,02,06,10,51,3.30
2008,02,06,10,52,3.20
2008,02,06,10,53,4.10
2008,02,06,10,54,8.00
2008,02,06,10,55,8.00
2008,02,06,10,56,4.10
2008,02,06,10,57,3.50
2008,02,06,10,58,5.80
2008,02,06,10,59,4.20
2008,02,06,11,00,3.30
2008,02,06,11,01,3.60
2008,02,06,11,02,2.60
2008,02,06,11,03,1.80
2008,02,06,11,04,2.80
2008,02,06,11,05,5.30
2008,02,06,11,06,6.00
2008,02,06,11,07,4.40
2008,02,06,11,08,5.20
2008,02,06,11,09,5.00
2008,02,06,11,10,4.80
2008,02,06,11,11,2.00
2008,02,06,11,12,6.50
2008,02,06,11,13,5.40
2008,02,06,11,14,8.40
2008,02,06,11,15,11.70
2008,02,06,11,16,8.30
2008,02,06,11,17,7.30
2008,02,06,11,18,4.80
2008,02,06,11,19,7.50
2008,02,06,11,20,7.30
2008,02,06,11,21,4.60
2008,02,06,11,22,4.80
2008,02,06,11,23,6.50
2008,02,06,11,24,12.00
2008,02,06,11,25,9.20
2008,02,06,11,26,8.90
2008,02,06,11,27,5.80
2008,02,06,11,28,12.00
2008,02,06,11,29,7.10
2008,02,06,11,30,7.00
2008,02,06,11,31,11.30
2008,02,06,11,32,14.40
2008,02,06,11,33,10.10
2008,02,06,11,34,11.70
2008,02,06,11,35,11.30
2008,02,06,11,36,12.10
2008,02,06,11,37,10.50
2008,02,06,11,38,14.60
2008,02,06,11,39,6.30
2008,02,06,11,40,9.00
2008,02,06,11,41,8.60
2008,02,06,11,42,17.10
2008,02,06,11,43,11.00
2008,02,06,11,44,12.80
2008,02,06,11,45,17.40
2008,02,06,11,46,20.00
2008,02,06,11,47,19.60
2008,02,06,11,48,16.30
2008,02,06,11,49,10.10
2008,02,06,11,50,9.40
2008,02,06,11,51,16.70
2008,02,06,11,52,10.20
2008,02,06,11,53,14.80
2008,02,06,11,54,11.10
2008,02,06,11,55,12.70
2008,02,06,11,56,10.30
2008,02,06,11,57,9.10
2008,02,06,11,58,15.00
2008,02,06,11,59,7.40
2008,02,06,12,00,13.90
2008,02,06,12,01,10.30
2008,02,06,12,02,18.00
2008,02,06,12,03,9.70
2008,02,06,12,04,12.50
2008,02,06,12,05,12.10
2008,02,06,12,06,13.90
2008,02,06,12,07,12.60
2008,02,06,12,08,10.50
2008,02,06,12,09,9.50
2008,02,06,12,10,8.90
2008,02,06,12,11,17.00
2008,02,06,12,12,9.20
2008,02,06,12,13,5.60
2008,02,06,12,14,12.60
2008,02,06,12,15,7.20
2008,02,06,12,16,16.00
2008,02,06,12,17,10.30
2008,02,06,12,18,6.70
2008,02,06,12,19,5.70
2008,02,06,12,20,8.70
2008,02,06,12,21,4.50
2008,02,06,12,22,6.00
2008,02,06,12,23,5.90
2008,02,06,12,24,11.80
2008,02,06,12,25,8.80
2008,02,06,12,26,6.50
2008,02,06,12,27,8.70
2008,02,06,12,28,6.10
2008,02,06,12,29,4.70
2008,02,06,12,30,3.90
2008,02,06,12,31,7.10
2008,02,06,12,32,4.60
2008,02,06,12,33,2.70
2008,02,06,12,34,6.10
2008,02,06,12,35,7.70
2008,02,06,12,36,7.10
2008,02,06,12,37,6.70
2008,02,06,12,38,6.80
2008,02,06,12,39,3.10
2008,02,06,12,40,4.70
2008,02,06,12,41,5.80
2008,02,06,12,42,5.60
2008,02,06,12,43,3.30
2008,02,06,12,44,5.50
2008,02,06,12,45,3.60
2008,02,06,12,46,6.00
2008,02,06,12,47,5.30
2008,02,06,12,48,2.20
2008,02,06,12,49,10.20
2008,02,06,12,50,6.10
2008,02,06,12,51,3.80
2008,02,06,12,52,6.50
2008,02,06,12,53,5.60
2008,02,06,12,54,5.30
2008,02,06,12,55,5.60
2008,02,06,12,56,7.20
2008,02,06,12,57,3.20
2008,02,06,12,58,8.40
2008,02,06,12,59,9.00
2008,02,06,13,00,8.60
2008,02,06,13,01,6.70
2008,02,06,13,02,1.10
2008,02,06,13,03,2.10
2008,02,06,13,04,0.30
2008,02,06,13,05,6.20
2008,02,06,13,06,7.10
2008,02,06,13,07,3.30
2008,02,06,13,08,7.70
2008,02,06,13,09,9.00
2008,02,06,13,10,8.10
2008,02,06,13,11,6.80
2008,02,06,13,12,4.80
2008,02,06,13,13,4.60
2008,02,06,13,14,5.90
2008,02,06,13,15,5.40
2008,02,06,13,16,4.10
2008,02,06,13,17,1.80
2008,02,06,13,18,3.10
2008,02,06,13,19,4.90
2008,02,06,13,20,3.90
2008,02,06,13,21,1.40
2008,02,06,13,22,0.20
2008,02,06,13,23,0.00
2008,02,06,13,24,0.00
2008,02,06,13,25,0.00
2008,02,06,13,26,2.60
2008,02,06,13,27,0.00
2008,02,06,13,28,0.00
2008,02,06,13,29,0.60
2008,02,06,13,30,0.10
2008,02,06,13,31,0.90
2008,02,06,13,32,0.20
2008,02,06,13,33,0.60
2008,02,06,13,34,0.20
2008,02,06,13,35,0.00
2008,02,06,13,36,0.50
2008,02,06,13,37,0.20
2008,02,06,13,38,0.00
2008,02,06,13,39,0.00
2008,02,06,13,40,0.00
2008,02,06,13,41,0.00
2008,02,06,13,42,0.00
2008,02,06,13,43,0.00
2008,02,06,13,44,0.20
2008,02,06,13,45,0.00
2008,02,06,13,46,0.00
2008,02,06,13,47,0.10
2008,02,06,13,48,3.60
2008,02,06,13,49,3.20
2008,02,06,13,50,0.40
2008,02,06,13,51,1.50
2008,02,06,13,52,2.40
2008,02,06,13,53,3.40
2008,02,06,13,54,0.20
2008,02,06,13,55,0.00
2008,02,06,13,56,0.00
2008,02,06,13,57,0.10
2008,02,06,13,58,0.50
2008,02,06,13,59,3.80
2008,02,06,14,00,1.30
2008,02,06,14,01,4.70
2008,02,06,14,02,5.30
2008,02,06,14,03,2.60
2008,02,06,14,04,0.60
2008,02,06,14,05,1.00
2008,02,06,14,06,1.60
2008,02,06,14,07,1.60
2008,02,06,14,08,2.50
2008,02,06,14,09,4.80
2008,02,06,14,10,6.40
2008,02,06,14,11,4.30
2008,02,06,14,12,3.20
2008,02,06,14,13,1.60
2008,02,06,14,14,0.20
2008,02,06,14,15,2.10
2008,02,06,14,16,0.00
2008,02,06,14,17,1.40
2008,02,06,14,18,0.50
2008,02,06,14,19,0.80
2008,02,06,14,20,0.10
2008,02,06,14,21,0.60
2008,02,06,14,22,0.00
2008,02,06,14,23,0.00
2008,02,06,14,24,0.00
2008,02,06,14,25,0.00
2008,02,06,14,26,0.00
2008,02,06,14,27,0.00
2008,02,06,14,28,0.00
2008,02,06,14,29,0.00
2008,02,06,14,30,0.00
2008,02,06,14,31,0.00
2008,02,06,14,32,0.00
2008,02,06,14,33,0.00
2008,02,06,14,34,0.60
2008,02,06,14,35,0.60
2008,02,06,14,36,1.10
2008,02,06,14,37,0.10
2008,02,06,14,38,1.20
2008,02,06,14,39,2.20
2008,02,06,14,40,3.90
2008,02,06,14,41,2.00
2008,02,06,14,42,0.90
2008,02,06,14,43,2.80
2008,02,06,14,44,2.30
2008,02,06,14,45,0.30
2008,02,06,14,46,0.00
2008,02,06,14,47,2.00
2008,02,06,14,48,3.00
2008,02,06,14,49,0.30
2008,02,06,14,50,0.20
2008,02,06,14,51,0.10
2008,02,06,14,52,0.00
2008,02,06,14,53,0.10
2008,02,06,14,54,0.70
2008,02,06,14,55,1.70
2008,02,06,14,56,0.10
2008,02,06,14,57,2.60
2008,02,06,14,58,1.70
2008,02,06,14,59,1.50
2008,02,06,15,00,0.10
2008,02,06,15,01,2.00
2008,02,06,15,02,0.00
2008,02,06,15,03,0.00
2008,02,06,15,04,0.00
2008,02,06,15,05,0.10
2008,02,06,15,06,1.90
2008,02,06,15,07,2.20
2008,02,06,15,08,0.30
2008,02,06,15,09,0.00
2008,02,06,15,10,0.00
2008,02,06,15,11,0.00
2008,02,06,15,12,0.30
2008,02,06,15,13,0.20
2008,02,06,15,14,0.00
2008,02,06,15,15,0.10
2008,02,06,15,16,1.00
2008,02,06,15,17,1.80
2008,02,06,15,18,0.00
2008,02,06,15,19,0.60
2008,02,06,15,20,0.00
2008,02,06,15,21,0.00
2008,02,06,15,22,0.90
2008,02,06,15,23,4.40
2008,02,06,15,24,3.00
2008,02,06,15,25,3.90
2008,02,06,15,26,4.10
2008,02,06,15,27,3.40
2008,02,06,15,28,2.50
2008,02,06,15,29,4.60
2008,02,06,15,30,2.20
2008,02,06,15,31,3.10
2008,02,06,15,32,3.20
2008,02,06,15,33,0.90
2008,02,06,15,34,2.30
2008,02,06,15,35,0.90
2008,02,06,15,36,2.20
2008,02,06,15,37,2.30
2008,02,06,15,38,4.70
2008,02,06,15,39,6.40
2008,02,06,15,40,7.90
2008,02,06,15,41,6.80
2008,02,06,15,42,3.10
2008,02,06,15,43,2.70
2008,02,06,15,44,3.00
2008,02,06,15,45,3.90
2008,02,06,15,46,7.90
2008,02,06,15,47,5.60
2008,02,06,15,48,6.60
2008,02,06,15,49,5.30
2008,02,06,15,50,2.60
2008,02,06,15,51,3.60
2008,02,06,15,52,3.50
2008,02,06,15,53,3.10
2008,02,06,15,54,3.40
2008,02,06,15,55,2.60
2008,02,06,15,56,4.60
2008,02,06,15,57,4.10
2008,02,06,15,58,4.40
2008,02,06,15,59,4.90
2008,02,06,16,00,3.70
2008,02,06,16,01,3.60
2008,02,06,16,02,5.00
2008,02,06,16,03,4.00
2008,02,06,16,04,4.60
2008,02,06,16,05,6.80
2008,02,06,16,06,4.70
2008,02,06,16,07,5.00
2008,02,06,16,08,4.60
2008,02,06,16,09,2.80
2008,02,06,16,10,4.30
2008,02,06,16,11,4.40
2008,02,06,16,12,4.80
2008,02,06,16,13,8.10
2008,02,06,16,14,7.70
2008,02,06,16,15,2.60
2008,02,06,16,16,0.60
2008,02,06,16,17,0.50
2008,02,06,16,18,0.10
2008,02,06,16,19,1.10
2008,02,06,16,20,3.90
2008,02,06,16,21,2.60
2008,02,06,16,22,1.20
2008,02,06,16,23,3.50
2008,02,06,16,24,1.20
2008,02,06,16,25,0.50
2008,02,06,16,26,0.00
2008,02,06,16,27,0.00
2008,02,06,16,28,0.60
2008,02,06,16,29,0.90
2008,02,06,16,30,0.00
2008,02,06,16,31,1.10
2008,02,06,16,32,0.50
2008,02,06,16,33,0.60
2008,02,06,16,34,1.40
2008,02,06,16,35,2.20
2008,02,06,16,36,2.00
2008,02,06,16,37,4.60
2008,02,06,16,38,2.80
2008,02,06,16,39,0.00
2008,02,06,16,40,2.30
2008,02,06,16,41,2.30
2008,02,06,16,42,1.40
2008,02,06,16,43,0.20
2008,02,06,16,44,2.30
2008,02,06,16,45,0.00
2008,02,06,16,46,0.10
2008,02,06,16,47,0.00
2008,02,06,16,48,0.00
2008,02,06,16,49,0.00
2008,02,06,16,50,0.00
2008,02,06,16,51,0.00
2008,02,06,16,52,0.00
2008,02,06,16,53,0.00
2008,02,06,16,54,0.00
2008,02,06,16,55,0.00
2008,02,06,16,56,0.00
2008,02,06,16,57,0.00
2008,02,06,16,58,0.60
2008,02,06,16,59,1.40
2008,02,06,17,00,2.80
2008,02,06,17,01,3.00
2008,02,06,17,02,3.70
2008,02,06,17,03,3.20
2008,02,06,17,04,3.50
2008,02,06,17,05,3.00
2008,02,06,17,06,2.80
2008,02,06,17,07,1.60
2008,02,06,17,08,1.40
2008,02,06,17,09,1.00
2008,02,06,17,10,2.20
2008,02,06,17,11,3.20
2008,02,06,17,12,3.20
2008,02,06,17,13,2.80
2008,02,06,17,14,0.40
2008,02,06,17,15,1.40
2008,02,06,17,16,1.20
2008,02,06,17,17,0.60
2008,02,06,17,18,0.00
2008,02,06,17,19,1.60
2008,02,06,17,20,0.10
2008,02,06,17,21,1.00
2008,02,06,17,22,0.10
2008,02,06,17,23,1.20
2008,02,06,17,24,0.00
2008,02,06,17,25,0.70
2008,02,06,17,26,0.80
2008,02,06,17,27,0.00
2008,02,06,17,28,0.20
2008,02,06,17,29,0.00
2008,02,06,17,30,0.00
2008,02,06,17,31,0.00
2008,02,06,17,32,0.20
2008,02,06,17,33,1.70
2008,02,06,17,34,1.30
2008,02,06,17,35,2.00
2008,02,06,17,36,3.00
2008,02,06,17,37,2.20
2008,02,06,17,38,1.10
2008,02,06,17,39,0.30
2008,02,06,17,40,2.00
2008,02,06,17,41,2.40
2008,02,06,17,42,0.90
2008,02,06,17,43,0.20
2008,02,06,17,44,0.80
2008,02,06,17,45,0.00
2008,02,06,17,46,0.90
2008,02,06,17,47,2.40
2008,02,06,17,48,0.30
2008,02,06,17,49,1.50